Other Public Products
Issued by NWS Charleston, SC

Current Version | Previous Version | Graphics & Text | Print | Product List | Glossary On
Versions: 1 2 3 4 5 6 7 8 9 10 11 12 13 14 15 16 17 18 19 20 21 22 23 24 25 26 27 28 29 30 31 32 33 34 35 36 37 38 39 40 41 42 43 44 45 46 47 48 49 50
650 FPUS82 KCHS 200024 OPUCHS TEST...KCHS/KSAV Gateway Observations...TEST National Weather Service Charleston SC 800 PM EDT TUE SEP 19 2017 NOTE: "fair" indicates few or no clouds below 12,000 feet with no significant weather and/or obstructions to visibility. SCZ050-WAZ558-NCZ071-TXZ119-213-PAZ071-DCZ001-FLZ074-172-MI076- NYZ176-178-MAZ016-IL014-TNZ027-NJZ106-GAZ044-MD014-200100- ...Gateway Observations for Charleston International... CITY SKY/WX TMP DP RH WIND PRES REMARKS Chas Airport PTCLDY 80 67 64 CALM 29.96R 6HR MIN TEMP: 80; 6HR MAX TEMP: 88; Seattle PTSUNNY 63 47 55 SW14 29.73F 6HR MIN TEMP: 55; 6HR MAX TEMP: 64; 6HR PCP: 0.01; Charlotte PTCLDY 77 68 73 S3 29.97S 6HR MIN TEMP: 77; 6HR MAX TEMP: 86; Dallas DFW PTCLDY 94 66 39 S16 29.75S HX 97 6HR MIN TEMP: 91; 6HR MAX TEMP: 98; Dallas Love PTCLDY 94 64 37 S14G23 29.76S HX 95 6HR MIN TEMP: 91; 6HR MAX TEMP: 97; Philladelphia CLOUDY 74 66 76 N10 29.87S 6HR MIN TEMP: 70; 6HR MAX TEMP: 79; 6HR PCP: 0.07; Wash National PTCLDY 78 66 66 N10 29.90S 6HR MIN TEMP: 78; 6HR MAX TEMP: 84; Baltimore PTCLDY 75 68 78 NW6 29.89S 6HR MIN TEMP: 75; 6HR MAX TEMP: 83; Miami CLOUDY 86 74 67 E6 29.92R THUNDER HX 94 6HR MIN TEMP: 86; 6HR MAX TEMP: 94; 6HR PCP: TRACE; Detroit CLOUDY 69 67 93 NE3 29.94F 6HR MIN TEMP: 69; 6HR MAX TEMP: 71; 6HR PCP: 0.02; Newark LGT RAIN 69 66 90 N21G28 29.88S 6HR MIN TEMP: 69; 6HR MAX TEMP: 81; 6HR PCP: 0.04; Laguardia CLOUDY 71 66 84 N15 29.87F 6HR MIN TEMP: 69; 6HR MAX TEMP: 78; 6HR PCP: 0.19; J F K CLOUDY 70 66 87 N16G29 29.87S 6HR MIN TEMP: 69; 6HR MAX TEMP: 72; 6HR PCP: 0.24; Boston Logan NOT AVBL Ft. Lauderdale MOCLDY 82 78 88 E10 29.91S HX 91 6HR PCP: 0.04; Chicago O`Hare PTCLDY 71 62 73 E8 29.91S 6HR MIN TEMP: 71; 6HR MAX TEMP: 79; Chicago Midway PTCLDY 71 63 75 E9 29.91S 6HR MIN TEMP: 71; 6HR MAX TEMP: 78; Houston Bush MOCLDY 87 73 62 S13 29.86R HX 94 6HR MIN TEMP: 87; 6HR MAX TEMP: 93; Houston Hobby MOCLDY 86 72 62 S12 29.86R HX 92 6HR MIN TEMP: 86; 6HR MAX TEMP: 94; Nashville CLOUDY 73 70 90 CALM 29.96R 6HR MIN TEMP: 69; 6HR MAX TEMP: 83; 6HR PCP: 0.60; Atlanta CLOUDY 81 65 58 W5 29.99R 6HR MIN TEMP: 81; 6HR MAX TEMP: 89; $$ GAZ044-118-TXZ119-213-NCZ071-DCZ001-MDZ014-506-PAZ021-071-NJZ106- NYZ176-178-MAZ106-OHZ011-021-055-MIZ076-KYZ091-ILZ014-INZ047- MNZ060-ONZ431-200100- ...Gateway Observations for Savannah International... CITY SKY/WX TMP DP RH WIND PRES REMARKS Savannah Arpt PTCLDY 80 71 74 S6 29.96R 6HR MIN TEMP: 80; 6HR MAX TEMP: 92; Atlanta CLOUDY 81 65 58 W5 29.99R 6HR MIN TEMP: 81; 6HR MAX TEMP: 89; Charlotte PTCLDY 77 68 73 S3 29.97S 6HR MIN TEMP: 77; 6HR MAX TEMP: 86; Dallas DFW PTCLDY 94 66 39 S16 29.75S HX 97 6HR MIN TEMP: 91; 6HR MAX TEMP: 98; Houston Bush MOCLDY 87 73 62 S13 29.86R HX 94 6HR MIN TEMP: 87; 6HR MAX TEMP: 93; Wash National PTCLDY 78 66 66 N10 29.90S 6HR MIN TEMP: 78; 6HR MAX TEMP: 84; Wash Dulles PTCLDY 77 67 71 N7 29.92R 6HR MIN TEMP: 77; 6HR MAX TEMP: 82; Baltimore PTCLDY 75 68 78 NW6 29.89S 6HR MIN TEMP: 75; 6HR MAX TEMP: 83; Philadelphia CLOUDY 74 66 76 N10 29.87S 6HR MIN TEMP: 70; 6HR MAX TEMP: 79; 6HR PCP: 0.07; Newark LGT RAIN 69 66 90 N21G28 29.88S 6HR MIN TEMP: 69; 6HR MAX TEMP: 81; 6HR PCP: 0.04; Laguardia CLOUDY 71 66 84 N15 29.87F 6HR MIN TEMP: 69; 6HR MAX TEMP: 78; 6HR PCP: 0.19; J F K CLOUDY 70 66 87 N16G29 29.87S 6HR MIN TEMP: 69; 6HR MAX TEMP: 72; 6HR PCP: 0.24; Boston NOT AVBL Pittsburg PTCLDY 75 62 64 E5 29.97R 6HR MIN TEMP: 75; 6HR MAX TEMP: 84; Akron CLOUDY 75 63 66 W3 29.98R 6HR MIN TEMP: 74; 6HR MAX TEMP: 84; Cleveland CLOUDY 75 67 76 NE5 29.97S 6HR MIN TEMP: 75; 6HR MAX TEMP: 83; 6HR PCP: TRACE; Cincinnati PTCLDY 72 68 87 SW5 29.95S 6HR MIN TEMP: 70; 6HR MAX TEMP: 78; Columbus CLOUDY 71 67 85 CALM 29.95S Detroit CLOUDY 69 67 93 NE3 29.94F 6HR MIN TEMP: 69; 6HR MAX TEMP: 71; 6HR PCP: 0.02; Chicago O`Hare PTCLDY 71 62 73 E8 29.91S 6HR MIN TEMP: 71; 6HR MAX TEMP: 79; Minneapolis CLOUDY 76 63 64 SE16G23 29.69F 6HR MIN TEMP: 75; 6HR MAX TEMP: 80; Indianapolis MOCLDY 77 65 66 CALM 29.91S 6HR MIN TEMP: 76; 6HR MAX TEMP: 83; 6HR PCP: TRACE; Toronto Canada MOCLDY 73 66 78 E6 29.99R $$

USA.gov is the U.S. government's official web portal to all federal, state and local government web resources and services.